Showing default

YAOGAN-30 R, 45460

Orbit data source: Space-Track

YAOGAN-30 R, 45460 is a payload satellite owned by PLA SSF (CN) in LEO that was launched on Tue, 24 Mar 2020 UTC via a CHANG ZHENG 2C launch vehicle from the Xichang Space Center, China (XSC). Payload-class satellites include a variety of spacecraft equipped with specific instruments for various scientific and technological missions. These include communications satellites like Starlink; space stations such as the ISS; scientific satellites like the Hubble; Earth observation satellites from companies like Planet Labs, Umbra, and HawkEye 360; GPS; miniature CubeSats for education and research; and military/defense satellites.

Loading next visibility...
Identifier
45460, 2020-021A
Orbit
LEO
Country
Flag of CNCN / PRC
Related business
Manufacturer
SECM
Mission
Operational Defense Sigint
Bus & Motor
Unknown
Mass
~500 kg wet, ~500 kg dry
Launch date (UTC)
2020-03-24 (6 years ago)
Launch vehicle
CHANG ZHENG 2C
Launch site
Xichang Space Center, China (XSC)
Object type
Payload
Rocket body
Debris
Shape & HBR
Box + 2 Pan, 0.5 m
Radar Cross Section
0.446 m², Large (>1 m²)

Expand to show TLE details & history
Last TLE update: 23 hours ago

TLE from 23 hours ago
0 YAOGAN-30 R
1 45460U 20021A   26172.48360558  .00001392  00000-0  10427-3 0  9993
2 45460  34.9934 184.6887 0002916  50.6489 309.4477 15.02730765341205
Epoch: 2026-06-21T11:36Z
TLE epoch observation values (Epoch: 2026-06-21T11:36:23.522Z)
Latitude
-0.00002°
Longitude
100.90744°
Altitude
556.112 km
Speed
7.587 km/s
True Right ascension
12h 18m 45s
True Declination
0° 00' 00"
Sunlit
Object was in daylight at epoch
Visualization orbit readout
Latitude
Unknown
Longitude
Unknown
Altitude
Unknown
Speed
Unknown
Apparent Right ascension
Unknown
Apparent Declination
Unknown
Sunlit
N/A
Visualization observer readout
Local Sidereal Time
21:33:26
Azimuth
Unknown
Elevation
Unknown
Doppler factor
Unknown
Orbital elements
Apogee altitude
563.726 km
Perigee altitude
559.679 km
Semi-major axis
6,939.839 km
Eccentricity
0.00029
Inclination
34.9934°
RAAN
184.6887°
Arg. of periapsis
50.6489°
True anomaly
309.42189°
Mean anomaly
309.4477°
Eccentric anomaly
309.4348°
Mean motion
3.75421 °/min
Orbital period
95.89 mins
BSTAR
0.00010427
Loading maneuver chart data...
Computing Atmospheric mass density...
Loading historical data...
Loading historical data...
Loading historical data...
Loading historical data...
Loading historical data...
Loading historical data...
Loading historical data...
Other satellites on launch #21 in the year 2020 (2020-03-24 UTC)

Documentation

Showing up to 5 results
|